AFR279 RJTT-LFPG

Flight info

Callsign AFR279
Flight time N/A
Altitude 31000
Route INUBO Y808 PUTER A590 PUGAL/N0499F320 A590 POWAL/N0499F310 DCT HEDMI/N0499F330 R338 MARCC DCT JUJXI DCT 71N160W DCT AGMIF/N0494F350 DCT 79N120W 80N100W 80N080W DCT BUDUM/M084F350 DCT 80N060W 79N050W 77N040W 74N030W 70N020W/M084F370 DCT RATSU/N0494F370 DCT BARKU DCT ELBUS DCT AKOMU DCT VAMEB UL612 WOD UM605 BIBAX
Aircraft B77W/H-SDE1E2E3FGHIJ2J3J4J5M1RWXY/LB1D1

Departure

Time N/A
Airport Tokyo Haneda International Airport (RJTT)

Arrival

Time 2026-05-08 10:57
Airport Charles de Gaulle International Airport (LFPG)
Time Latitude Longitude Altitude Speed Heading
2026-05-08 10:24 51.26754 -0.60658 35078 ft 512 kts 138°
2026-05-08 10:24 51.24128 -0.56826 35084 ft 513 kts 138°
2026-05-08 10:25 51.18844 -0.49140 35104 ft 515 kts 138°
2026-05-08 10:25 51.13539 -0.41446 35104 ft 517 kts 138°
2026-05-08 10:26 51.08218 -0.33749 35099 ft 517 kts 138°
2026-05-08 10:26 51.02888 -0.26063 35106 ft 517 kts 138°
2026-05-08 10:27 50.97554 -0.18395 35078 ft 517 kts 139°
2026-05-08 10:27 50.92219 -0.10752 35089 ft 517 kts 139°
2026-05-08 10:28 50.86886 -0.03136 35071 ft 517 kts 139°
2026-05-08 10:28 50.81545 0.04468 35102 ft 515 kts 139°
2026-05-08 10:29 50.76235 0.12007 35083 ft 513 kts 139°
2026-05-08 10:29 50.70772 0.19208 35101 ft 510 kts 142°
2026-05-08 10:30 50.65288 0.26014 35096 ft 509 kts 142°
2026-05-08 10:30 50.59752 0.33016 35095 ft 510 kts 142°
2026-05-08 10:31 50.54222 0.40052 35103 ft 512 kts 142°
2026-05-08 10:31 50.48676 0.47102 35116 ft 513 kts 142°
2026-05-08 10:32 50.43125 0.54120 35094 ft 511 kts 142°
2026-05-08 10:32 50.37597 0.61083 35092 ft 509 kts 142°
2026-05-08 10:33 50.32125 0.67963 35087 ft 508 kts 142°
2026-05-08 10:33 50.29340 0.71461 34257 ft 520 kts 142°
2026-05-08 10:33 50.26514 0.75010 33302 ft 522 kts 142°
2026-05-08 10:33 50.23677 0.78570 32302 ft 522 kts 142°
2026-05-08 10:34 50.20845 0.82118 31283 ft 522 kts 142°
2026-05-08 10:34 50.18017 0.85652 30452 ft 519 kts 142°
2026-05-08 10:34 50.15212 0.89140 29703 ft 513 kts 142°
2026-05-08 10:34 50.12438 0.92581 28982 ft 505 kts 142°
2026-05-08 10:35 50.09715 0.95955 28295 ft 496 kts 143°
2026-05-08 10:35 50.07039 0.99268 27628 ft 487 kts 143°
2026-05-08 10:35 50.04320 1.02299 26948 ft 476 kts 151°
2026-05-08 10:35 50.01402 1.04645 26349 ft 468 kts 156°
2026-05-08 10:36 49.98458 1.06740 25691 ft 462 kts 157°
2026-05-08 10:36 49.95539 1.08772 25045 ft 457 kts 157°
2026-05-08 10:36 49.92660 1.10804 24427 ft 451 kts 156°
2026-05-08 10:36 49.89810 1.12855 23799 ft 444 kts 156°
2026-05-08 10:37 49.87079 1.14865 23108 ft 428 kts 156°
2026-05-08 10:37 49.84355 1.16891 22501 ft 443 kts 156°
2026-05-08 10:37 49.81588 1.18958 21866 ft 436 kts 155°
2026-05-08 10:37 49.78963 1.20927 21241 ft 405 kts 156°
2026-05-08 10:38 49.76508 1.22766 20705 ft 386 kts 156°
2026-05-08 10:38 49.74093 1.24569 20173 ft 385 kts 156°
2026-05-08 10:38 49.71673 1.26368 19635 ft 388 kts 156°
2026-05-08 10:38 49.69211 1.28194 19089 ft 397 kts 156°
2026-05-08 10:39 49.66699 1.30055 18521 ft 403 kts 156°
2026-05-08 10:39 49.64166 1.31931 17885 ft 403 kts 156°
2026-05-08 10:39 49.61647 1.33797 17258 ft 401 kts 156°
2026-05-08 10:39 49.59159 1.35639 16981 ft 389 kts 156°
2026-05-08 10:40 49.56776 1.37401 16851 ft 368 kts 156°
2026-05-08 10:40 49.54545 1.39052 16605 ft 345 kts 156°
2026-05-08 10:40 49.52435 1.40610 16224 ft 330 kts 156°
2026-05-08 10:40 49.50394 1.42115 15703 ft 321 kts 156°
2026-05-08 10:41 49.48396 1.43582 15116 ft 316 kts 156°
2026-05-08 10:41 49.46418 1.45037 14497 ft 315 kts 156°
2026-05-08 10:41 49.44428 1.46495 14084 ft 316 kts 156°
2026-05-08 10:41 49.42484 1.47919 13778 ft 311 kts 156°
2026-05-08 10:42 49.40537 1.49345 13359 ft 309 kts 156°
2026-05-08 10:42 49.38598 1.50766 12872 ft 309 kts 155°
2026-05-08 10:42 49.36664 1.52186 12441 ft 307 kts 155°
2026-05-08 10:42 49.34740 1.53589 12065 ft 306 kts 155°
2026-05-08 10:43 49.32825 1.54990 11715 ft 304 kts 154°
2026-05-08 10:43 49.31083 1.56779 11345 ft 302 kts 132°
2026-05-08 10:43 49.30040 1.59538 11103 ft 301 kts 108°
2026-05-08 10:43 49.29681 1.62706 11083 ft 305 kts 94°
2026-05-08 10:44 49.29562 1.65937 11066 ft 301 kts 93°
2026-05-08 10:44 49.29441 1.69125 11066 ft 299 kts 94°
2026-05-08 10:44 49.29288 1.72263 11052 ft 292 kts 99°
2026-05-08 10:44 49.28552 1.75105 11056 ft 287 kts 128°
2026-05-08 10:45 49.27067 1.77155 11067 ft 292 kts 149°
2026-05-08 10:45 49.25225 1.78496 10915 ft 296 kts 157°
2026-05-08 10:45 49.23313 1.79743 10516 ft 299 kts 156°
2026-05-08 10:45 49.21444 1.80972 9996 ft 286 kts 156°
2026-05-08 10:46 49.19657 1.82162 9672 ft 276 kts 155°
2026-05-08 10:46 49.17886 1.83351 9549 ft 281 kts 156°
2026-05-08 10:46 49.16101 1.84648 9380 ft 287 kts 146°
2026-05-08 10:46 49.14554 1.86613 9248 ft 291 kts 134°
2026-05-08 10:47 49.13158 1.88815 9123 ft 285 kts 133°
2026-05-08 10:47 49.11813 1.91001 8875 ft 280 kts 133°
2026-05-08 10:47 49.10484 1.93134 8553 ft 271 kts 133°
2026-05-08 10:47 49.09225 1.95125 8143 ft 259 kts 133°
2026-05-08 10:48 49.07973 1.97082 7794 ft 257 kts 134°
2026-05-08 10:48 49.06720 1.99024 7466 ft 258 kts 134°
2026-05-08 10:48 49.05456 2.00969 7108 ft 258 kts 135°
2026-05-08 10:48 49.04190 2.02911 6788 ft 259 kts 135°
2026-05-08 10:49 49.02909 2.04870 6462 ft 262 kts 135°
2026-05-08 10:49 49.01619 2.06840 6103 ft 263 kts 135°
2026-05-08 10:49 49.00325 2.08811 5752 ft 264 kts 135°
2026-05-08 10:49 48.99037 2.10770 5379 ft 255 kts 134°
2026-05-08 10:50 48.97835 2.12655 5019 ft 239 kts 126°
2026-05-08 10:50 48.97263 2.14805 5007 ft 214 kts 93°
2026-05-08 10:50 48.97250 2.17063 5013 ft 212 kts 88°
2026-05-08 10:50 48.97313 2.19277 5052 ft 205 kts 86°
2026-05-08 10:51 48.97410 2.21382 4871 ft 196 kts 85°
2026-05-08 10:51 48.97516 2.23423 4623 ft 191 kts 85°
2026-05-08 10:51 48.97621 2.25390 4363 ft 181 kts 84°
2026-05-08 10:51 48.97719 2.27216 4146 ft 164 kts 84°
2026-05-08 10:52 48.97807 2.28869 3931 ft 151 kts 84°
2026-05-08 10:52 48.97896 2.30499 3747 ft 154 kts 85°
2026-05-08 10:52 48.97980 2.32077 3521 ft 145 kts 85°
2026-05-08 10:52 48.98060 2.33589 3343 ft 143 kts 85°
2026-05-08 10:53 48.98142 2.35096 3147 ft 143 kts 85°
2026-05-08 10:53 48.98214 2.36617 2955 ft 144 kts 85°
2026-05-08 10:53 48.98285 2.38126 2796 ft 143 kts 86°
2026-05-08 10:53 48.98367 2.39636 2538 ft 142 kts 84°
2026-05-08 10:54 48.98460 2.41102 2341 ft 139 kts 84°
2026-05-08 10:54 48.98548 2.42600 2231 ft 145 kts 85°
2026-05-08 10:54 48.98624 2.44187 2030 ft 153 kts 86°
2026-05-08 10:54 48.98695 2.45775 1811 ft 147 kts 84°
2026-05-08 10:55 48.98793 2.47324 1592 ft 147 kts 84°
2026-05-08 10:55 48.98874 2.48892 1383 ft 150 kts 85°
2026-05-08 10:55 48.98957 2.50424 1154 ft 143 kts 84°
2026-05-08 10:55 48.99038 2.51903 948 ft 137 kts 84°
2026-05-08 10:56 48.99112 2.53359 804 ft 140 kts 84°
2026-05-08 10:56 48.99201 2.54889 600 ft 148 kts 84°
2026-05-08 10:56 48.99284 2.56459 417 ft 147 kts 84°
2026-05-08 10:56 48.99369 2.57937 364 ft 127 kts 85°
2026-05-08 10:57 48.99426 2.59002 363 ft 75 kts 85°
2026-05-08 10:57 48.99457 2.59569 360 ft 43 kts 85°
2026-05-08 10:57 48.99608 2.59964 365 ft 14 kts
2026-05-08 10:58 48.99675 2.59966 359 ft 15 kts 359°
2026-05-08 10:58 48.99819 2.59954 364 ft 24 kts
2026-05-08 10:58 48.99944 2.60049 364 ft 18 kts 21°
2026-05-08 10:58 49.00032 2.60172 365 ft 18 kts 50°
2026-05-08 10:59 49.00107 2.60143 363 ft 10 kts 272°
2026-05-08 10:59 49.00103 2.60034 359 ft 10 kts 264°
2026-05-08 10:59 49.00096 2.59923 361 ft 11 kts 265°
2026-05-08 10:59 49.00092 2.59845 365 ft 11 kts 265°
2026-05-08 11:00 49.00086 2.59728 359 ft 11 kts 265°
2026-05-08 11:00 49.00079 2.59606 360 ft 13 kts 265°
2026-05-08 11:00 49.00064 2.59315 364 ft 25 kts 265°
2026-05-08 11:00 49.00055 2.59135 359 ft 25 kts 265°
2026-05-08 11:01 49.00042 2.58870 359 ft 25 kts 266°
2026-05-08 11:01 49.00029 2.58610 363 ft 21 kts 264°
2026-05-08 11:01 49.00019 2.58412 365 ft 15 kts 270°
2026-05-08 11:01 49.00075 2.58290 366 ft 15 kts 302°
2026-05-08 11:02 49.00086 2.58136 365 ft 15 kts 267°
2026-05-08 11:02 49.00104 2.57922 365 ft 9 kts 345°
2026-05-08 11:02 49.00142 2.57918 366 ft 0 kts 356°